• In Hungary
  • List of Countries
  • For 7 days
  • Water Temperature
  • Satellite Maps
  • Weather Map
  • News
  • Weather Widgets
  • user-avatar
    Login

    Hourly Weather Westerlo

    Today, 22 February, Thursday

    Time Temperature Precipitation Wind Pressure Humidity
    00:00 -2°C° 0 mm 3 mps 766 mmHg 78%
    01:00 -3°C° 0 mm 4 mps 766 mmHg 79%
    02:00 -3°C° 0 mm 4 mps 766 mmHg 79%
    03:00 -3°C° 0 mm 4 mps 766 mmHg 79%
    04:00 -3°C° 0 mm 4 mps 766 mmHg 78%
    05:00 -3°C° 0 mm 4 mps 766 mmHg 76%
    06:00 -4°C° 0 mm 4 mps 766 mmHg 73%
    07:00 -4°C° 0 mm 5 mps 766 mmHg 67%
    08:00 -2°C° 0 mm 5 mps 766 mmHg 61%
    09:00 -2°C° 0 mm 6 mps 766 mmHg 55%
    10:00 +1°C° 0 mm 6 mps 766 mmHg 51%
    11:00 +2°C° 0 mm 6 mps 766 mmHg 47%
    12:00 +3°C° 0 mm 6 mps 765 mmHg 44%
    13:00 +3°C° 0 mm 6 mps 765 mmHg 45%
    14:00 +3°C° 0 mm 6 mps 765 mmHg 45%
    15:00 +3°C° 0 mm 6 mps 765 mmHg 46%
    16:00 +2°C° 0 mm 6 mps 765 mmHg 51%
    17:00 0°C° 0 mm 5 mps 765 mmHg 55%
    18:00 -1°C° 0 mm 4 mps 765 mmHg 60%
    19:00 -1°C° 0 mm 4 mps 765 mmHg 62%
    20:00 -2°C° 0 mm 4 mps 765 mmHg 64%
    21:00 -2°C° 0 mm 4 mps 766 mmHg 66%
    22:00 -2°C° 0 mm 4 mps 766 mmHg 66%
    23:00 -3°C° 0 mm 4 mps 766 mmHg 66%

    Tomorrow, 23 February, Friday

    Time Temperature Precipitation Wind Pressure Humidity
    00:00 -3°C° 0 mm 4 mps 766 mmHg 66%
    01:00 -3°C° 0 mm 4 mps 765 mmHg 66%
    02:00 -3°C° 0 mm 4 mps 765 mmHg 66%
    03:00 -4°C° 0 mm 4 mps 765 mmHg 65%
    04:00 -4°C° 0 mm 4 mps 765 mmHg 64%
    05:00 -4°C° 0 mm 4 mps 765 mmHg 63%
    06:00 -4°C° 0 mm 4 mps 765 mmHg 62%
    07:00 -4°C° 0 mm 5 mps 765 mmHg 57%
    08:00 -3°C° 0 mm 6 mps 765 mmHg 52%
    09:00 -2°C° 0 mm 6 mps 765 mmHg 47%
    10:00 -1°C° 0 mm 7 mps 765 mmHg 44%
    11:00 0°C° 0 mm 7 mps 764 mmHg 41%
    12:00 0°C° 0 mm 7 mps 764 mmHg 38%
    13:00 +2°C° 0 mm 7 mps 764 mmHg 38%
    14:00 +2°C° 0 mm 7 mps 763 mmHg 37%
    15:00 +2°C° 0 mm 7 mps 763 mmHg 36%
    16:00 +1°C° 0 mm 6 mps 763 mmHg 38%
    17:00 -1°C° 0 mm 5 mps 763 mmHg 40%
    18:00 -2°C° 0 mm 5 mps 764 mmHg 43%
    19:00 -2°C° 0 mm 5 mps 764 mmHg 42%
    20:00 -4°C° 0 mm 5 mps 764 mmHg 40%
    21:00 -4°C° 0 mm 5 mps 764 mmHg 39%
    22:00 -4°C° 0 mm 5 mps 764 mmHg 39%
    23:00 -5°C° 0 mm 5 mps 764 mmHg 39%

    Day after tomorrow, 24 February, Saturday

    Time Temperature Precipitation Wind Pressure Humidity
    00:00 -5°C° 0 mm 5 mps 764 mmHg 39%
    01:00 -5°C° 0 mm 5 mps 764 mmHg 39%
    02:00 -5°C° 0 mm 5 mps 764 mmHg 39%
    03:00 -5°C° 0 mm 5 mps 764 mmHg 39%
    04:00 -5°C° 0 mm 5 mps 764 mmHg 38%
    05:00 -5°C° 0 mm 5 mps 764 mmHg 37%
    06:00 -5°C° 0 mm 6 mps 764 mmHg 36%
    07:00 -4°C° 0 mm 6 mps 764 mmHg 33%
    08:00 -3°C° 0 mm 7 mps 764 mmHg 29%
    09:00 -2°C° 0 mm 7 mps 765 mmHg 26%
    10:00 -1°C° 0 mm 7 mps 765 mmHg 26%
    11:00 0°C° 0 mm 8 mps 764 mmHg 25%
    12:00 +2°C° 0 mm 8 mps 764 mmHg 25%
    13:00 +2°C° 0 mm 8 mps 764 mmHg 29%
    14:00 +2°C° 0 mm 8 mps 764 mmHg 32%
    15:00 +2°C° 0 mm 8 mps 764 mmHg 36%
    16:00 +2°C° 0 mm 7 mps 764 mmHg 41%
    17:00 0°C° 0 mm 7 mps 765 mmHg 46%
    18:00 -2°C° 0 mm 7 mps 765 mmHg 52%
    19:00 -2°C° 0 mm 7 mps 765 mmHg 50%
    20:00 -3°C° 0 mm 7 mps 766 mmHg 48%
    21:00 -4°C° 0 mm 6 mps 766 mmHg 46%
    22:00 -4°C° 0 mm 6 mps 766 mmHg 46%
    23:00 -4°C° 0 mm 6 mps 767 mmHg 46%

    25 February, Sunday

    Time Temperature Precipitation Wind Pressure Humidity
    00:00 -5°C° 0 mm 6 mps 767 mmHg 46%
    01:00 -5°C° 0 mm 6 mps 767 mmHg 46%
    02:00 -5°C° 0 mm 6 mps 767 mmHg 45%
    03:00 -5°C° 0 mm 6 mps 767 mmHg 45%
    04:00 -6°C° 0 mm 6 mps 767 mmHg 44%
    05:00 -6°C° 0 mm 6 mps 767 mmHg 42%
    06:00 -6°C° 0 mm 6 mps 767 mmHg 40%
    07:00 -5°C° 0 mm 6 mps 768 mmHg 36%
    08:00 -6°C° 0 mm 7 mps 768 mmHg 32%
    09:00 -4°C° 0 mm 7 mps 768 mmHg 28%
    10:00 -3°C° 0 mm 7 mps 768 mmHg 25%
    11:00 -2°C° 0 mm 7 mps 768 mmHg 22%
    12:00 -1°C° 0 mm 7 mps 768 mmHg 20%
    13:00 -1°C° 0 mm 7 mps 768 mmHg 21%
    14:00 -1°C° 0 mm 7 mps 768 mmHg 22%
    15:00 -1°C° 0 mm 7 mps 768 mmHg 23%
    16:00 -3°C° 0 mm 6 mps 768 mmHg 27%
    17:00 -4°C° 0 mm 6 mps 768 mmHg 30%
    18:00 -5°C° 0 mm 5 mps 769 mmHg 34%
    19:00 -5°C° 0 mm 5 mps 769 mmHg 36%
    20:00 -5°C° 0 mm 5 mps 769 mmHg 38%
    21:00 -6°C° 0 mm 5 mps 770 mmHg 40%
    22:00 -6°C° 0 mm 5 mps 770 mmHg 42%
    23:00 -6°C° 0 mm 5 mps 770 mmHg 43%

    26 February, Monday

    Time Temperature Precipitation Wind Pressure Humidity
    00:00 -5°C° 0 mm 4 mps 770 mmHg 45%
    01:00 -5°C° 0 mm 4 mps 770 mmHg 47%
    02:00 -5°C° 0 mm 4 mps 769 mmHg 49%
    03:00 -5°C° 0 mm 4 mps 769 mmHg 51%
    04:00 -7°C° 0 mm 4 mps 769 mmHg 53%
    05:00 -7°C° 0 mm 4 mps 769 mmHg 55%
    06:00 -7°C° 0 mm 5 mps 769 mmHg 57%
    07:00 -6°C° 0 mm 5 mps 769 mmHg 52%
    08:00 -6°C° 0 mm 6 mps 769 mmHg 47%
    09:00 -5°C° 0 mm 6 mps 769 mmHg 42%
    10:00 -5°C° 0 mm 6 mps 769 mmHg 40%
    11:00 -4°C° 0 mm 6 mps 769 mmHg 37%
    12:00 -4°C° 0 mm 6 mps 768 mmHg 35%
    13:00 -4°C° 0 mm 6 mps 768 mmHg 35%
    14:00 -4°C° 0 mm 6 mps 767 mmHg 35%
    15:00 -4°C° 0 mm 6 mps 767 mmHg 34%
    16:00 -4°C° 0 mm 6 mps 767 mmHg 37%
    17:00 -5°C° 0 mm 5 mps 767 mmHg 40%
    18:00 -5°C° 0 mm 4 mps 767 mmHg 43%
    19:00 -5°C° 0 mm 4 mps 767 mmHg 44%
    20:00 -7°C° 0 mm 4 mps 767 mmHg 45%
    21:00 -7°C° 0 mm 4 mps 767 mmHg 46%
    22:00 -7°C° 0 mm 4 mps 766 mmHg 46%
    23:00 -7°C° 0 mm 4 mps 766 mmHg 47%

    27 February, Tuesday

    Time Temperature Precipitation Wind Pressure Humidity
    00:00 -7°C° 0 mm 4 mps 766 mmHg 48%
    01:00 -7°C° 0 mm 4 mps 766 mmHg 47%
    02:00 -8°C° 0 mm 4 mps 766 mmHg 46%
    03:00 -8°C° 0 mm 4 mps 766 mmHg 45%
    04:00 -8°C° 0 mm 4 mps 765 mmHg 44%
    05:00 -8°C° 0 mm 4 mps 765 mmHg 43%
    06:00 -9°C° 0 mm 4 mps 765 mmHg 42%
    07:00 -8°C° 0 mm 4 mps 765 mmHg 40%
    08:00 -8°C° 0 mm 5 mps 765 mmHg 37%
    09:00 -7°C° 0 mm 5 mps 765 mmHg 34%
    10:00 -6°C° 0 mm 5 mps 765 mmHg 33%
    11:00 -5°C° 0 mm 5 mps 765 mmHg 32%
    12:00 -4°C° 0 mm 5 mps 764 mmHg 31%
    13:00 -4°C° 0 mm 5 mps 764 mmHg 31%
    14:00 -4°C° 0 mm 5 mps 764 mmHg 32%
    15:00 -4°C° 0 mm 5 mps 763 mmHg 32%
    16:00 -3°C° 0 mm 4 mps 763 mmHg 35%
    17:00 -4°C° 0 mm 4 mps 764 mmHg 39%
    18:00 -5°C° 0 mm 3 mps 764 mmHg 43%
    19:00 -5°C° 0 mm 3 mps 764 mmHg 42%
    20:00 -6°C° 0 mm 3 mps 764 mmHg 42%
    21:00 -6°C° 0 mm 3 mps 764 mmHg 42%
    22:00 -6°C° 0 mm 3 mps 764 mmHg 40%
    23:00 -5°C° 0 mm 2 mps 765 mmHg 38%
    Show more